Home > Weather > Victorville > Past weeks

Flag for USA Past Weather in Victorville, California, USA — Yesterday and Last 2 Weeks

Now
75 °F

Scattered clouds.


Feels Like: 76 °F
Forecast: 50 / 82 °F
Wind: No wind

Location: George Air Force Base / Victorvi

Current Time: May 27, 2016 at 11:18:01 AM

Latest Report: May 27, 2016 at 10:55 AM


Visibility: 10 mi

Pressure: 29.95 "Hg (27.22 "Hg at 830m altitude)

Humidity: 22%

Dew Point: 34 °F

Location of VictorvilleLocation

Past Weather in Victorville — Graph

°F

Victorville Temperature Yesterday

Maximum temperature yesterday: 81 °F (at 3:35 PM)
Minimum temperature yesterday: 52 °F (at 3:55 AM)
Average temperature yesterday: 66 °F

High & Low Weather Summary for the Past Weeks

 TemperatureHumidityPressure
High91 °F (May 12, 2:55 PM)82% (May 24, 4:15 AM)30.11 "Hg (May 24, 4:15 AM)
Low45 °F (May 21, 3:55 AM)7% (May 14, 1:15 PM)29.72 "Hg (May 20, 3:35 AM)
Average66 °F38%29.94 "Hg
* Reported May 12 10:15 AM — May 27 10:15 AM, Victorville, Weather by CustomWeather, © 2016

Note: Actual official high and low records may vary slightly from our data, if they occured in-between our weather recording intervals... More about our weather records

Advertising

Victorville Weather History for the Previous 24 Hours

Scroll right to see more
 ConditionsComfort  
Time TempWeatherWind HumidityBarometerVisibility
10:15 AM
Fri, May 27
72 °FSunny.No wind29%29.96 "Hg10 mi
9:55 AM70 °FSunny.No wind31%29.97 "Hg10 mi
9:15 AM68 °FScattered clouds.No wind33%29.98 "Hg10 mi
8:55 AM66 °FSunny.No wind35%29.98 "Hg10 mi
8:15 AM64 °FSunny.No wind40%29.98 "Hg10 mi
7:55 AM63 °FSunny.No wind42%29.98 "Hg10 mi
7:35 AM61 °FSunny.No wind42%29.98 "Hg10 mi
7:15 AM59 °FSunny.No wind55%29.98 "Hg10 mi
6:55 AM57 °FSunny.No wind63%29.98 "Hg10 mi
6:35 AM55 °FClear.No wind67%29.97 "Hg10 mi
6:15 AM55 °FClear.No wind67%29.97 "Hg10 mi
5:55 AM54 °FClear.No wind72%29.97 "Hg10 mi
5:35 AM55 °FClear.7 mph67%29.96 "Hg10 mi
5:15 AM54 °FClear.No wind67%29.95 "Hg10 mi
4:55 AM54 °FClear.No wind67%29.95 "Hg10 mi
4:15 AM54 °FClear.No wind63%29.95 "Hg10 mi
3:55 AM57 °FClear.No wind59%29.96 "Hg10 mi
3:15 AM55 °FClear.No wind59%29.94 "Hg10 mi
2:55 AM55 °FClear.No wind55%29.95 "Hg10 mi
2:35 AM57 °FClear.No wind51%29.96 "Hg10 mi
2:15 AM55 °FClear.No wind63%29.95 "Hg10 mi
1:55 AM57 °FClear.No wind59%29.97 "Hg10 mi
1:15 AM59 °FClear.No wind55%29.98 "Hg10 mi
12:55 AM61 °FClear.No wind48%29.99 "Hg10 mi
12:35 AM61 °FClear.No wind48%29.99 "Hg10 mi
12:15 AM61 °FClear.No wind52%29.99 "Hg10 mi
11:55 PM
Thu, May 26
59 °FClear.No wind55%29.98 "Hg10 mi
11:35 PM61 °FClear.7 mph52%29.99 "Hg10 mi
11:15 PM61 °FClear.No wind55%29.99 "Hg10 mi
10:55 PM63 °FClear.No wind52%29.99 "Hg10 mi
10:35 PM64 °FClear.No wind46%29.99 "Hg10 mi
10:15 PM64 °FClear.7 mph46%29.99 "Hg10 mi
9:55 PM64 °FClear.9 mph46%29.98 "Hg10 mi
9:35 PM64 °FClear.13 mph40%29.98 "Hg10 mi
9:15 PM66 °FClear.15 mph37%29.97 "Hg10 mi
8:55 PM66 °FClear.18 mph37%29.97 "Hg10 mi
8:35 PM68 °FSunny.22 mph33%29.96 "Hg10 mi
8:15 PM70 °FSunny.20 mph31%29.96 "Hg10 mi
7:55 PM70 °FSunny.22 mph31%29.95 "Hg10 mi
7:15 PM73 °FSunny.18 mph25%29.94 "Hg10 mi
6:55 PM75 °FScattered clouds.15 mph24%29.94 "Hg10 mi
6:15 PM77 °FScattered clouds.16 mph24%29.93 "Hg10 mi
5:55 PM77 °FSunny.10 mph24%29.93 "Hg10 mi
5:35 PM79 °FScattered clouds.16 mph23%29.93 "Hg10 mi
5:15 PM79 °FScattered clouds.13 mph21%29.93 "Hg7 mi
4:55 PM77 °FScattered clouds.10 mph22%29.94 "Hg10 mi
4:15 PM79 °FOvercast.16 mph17%29.95 "Hg10 mi
3:55 PM79 °FPartly sunny.8 mph17%29.95 "Hg10 mi
3:35 PM81 °FScattered clouds.8 mph15%29.96 "Hg10 mi
3:15 PM79 °FScattered clouds.8 mph17%29.97 "Hg10 mi
2:55 PM77 °FScattered clouds.5 mph21%29.98 "Hg10 mi
2:35 PM79 °FScattered clouds.5 mph20%29.98 "Hg10 mi
2:15 PM75 °FScattered clouds.No wind22%29.99 "Hg10 mi
1:55 PM77 °FScattered clouds.No wind21%30.00 "Hg10 mi
1:15 PM75 °FScattered clouds.7 mph24%30.00 "Hg10 mi
12:55 PM75 °FScattered clouds.No wind24%30.01 "Hg10 mi
12:15 PM73 °FScattered clouds.12 mph25%30.02 "Hg10 mi
11:55 AM73 °FScattered clouds.6 mph25%30.02 "Hg10 mi
11:15 AM72 °FScattered clouds.5 mph29%30.03 "Hg10 mi
Weather by CustomWeather, © 2016

See weather overviewHow to use our weather pages